This demonstration page uses our WeatherBlox Daily Observations layout. Learn more.

Left ArrowRight Arrow

36.19886, -115.1175

Hourly Observations for April 8, 2021

Temp ( °F °C ) Dew Point ( °F °C ) Humidity (%) Winds ( mph kmh ) Pressure ( in mb ) Visibility ( mi km ) Precip ( " mm )
12:53 am 00:53 Clear 69 20.6 20 -6.7 15 15 NNW 8 13 29.79 1009 10 16 N/A
1:53 am 01:53 Clear 66 18.9 20 -6.7 17 17 WNW 7 11 29.79 1009 10 16 N/A
2:53 am 02:53 Clear 65 18.3 21 -6.1 19 19 WNW 5 7 29.79 1009 10 16 N/A
3:53 am 03:53 Clear 67 19.4 15 -9.4 13 13 N 7 11 29.78 1009 10 16 N/A
4:53 am 04:53 Clear 67 19.4 17 -8.3 15 15 N 9 15 29.79 1009 10 16 N/A
5:53 am 05:53 Clear 67 19.4 21 -6.1 17 17 N 8 13 29.81 1009 10 16 N/A
6:53 am 06:53 Sunny 66 18.9 24 -4.4 20 20 W 6 9 29.83 1010 10 16 N/A
7:53 am 07:53 Sunny 70 21.1 26 -3.3 19 19 S 7 11 29.85 1011 10 16 N/A
8:53 am 08:53 Sunny 77 25 28 -2.2 16 16 NNW 15 24 29.84 1011 10 16 N/A
9:53 am 09:53 Sunny 79 26.1 24 -4.4 13 13 NNW 10 17 29.85 1011 10 16 N/A
10:53 am 10:53 Sunny 81 27.2 16 -8.9 9 9 NNW 13 20 29.85 1011 10 16 N/A
11:53 am 11:53 Sunny 84 28.9 17 -8.3 8 8 NW 17 28 29.84 1011 10 16 N/A
12:53 pm 12:53 Sunny 86 30 18 -7.8 8 8 NNW 17 28 29.82 1010 10 16 N/A
1:53 pm 13:53 Sunny 87 30.6 16 -8.9 7 7 NW 20 31 29.81 1009 10 16 N/A
2:53 pm 14:53 Sunny 88 31.1 15 -9.4 7 7 NNW 22 35 29.78 1008 10 16 N/A
3:53 pm 15:53 Sunny 88 31.1 12 -11.1 6 6 NNW 17 28 29.75 1008 10 16 N/A
4:53 pm 16:53 Sunny 87 30.6 -6 -21.1 2 2 NNW 20 31 29.75 1008 10 16 N/A
5:53 pm 17:53 Sunny 86 30 -10 -23.3 2 2 NNW 20 31 29.75 1007 10 16 N/A
6:53 pm 18:53 Sunny 83 28.3 -10 -23.3 2 2 NNW 14 22 29.77 1008 10 16 N/A
7:53 pm 19:53 Clear 80 26.7 -8 -22.2 3 3 NW 13 20 29.78 1009 10 16 N/A
8:53 pm 20:53 Clear 77 25 -3 -19.4 4 4 NNW 9 15 29.80 1009 10 16 N/A
9:53 pm 21:53 Clear 76 24.4 4 -15.6 6 6 NW 9 15 29.81 1010 10 16 N/A
10:53 pm 22:53 Clear 74 23.3 7 -13.9 7 7 WNW 16 26 29.81 1009 10 16 N/A
11:53 pm 23:53 Clear 70 21.1 10 -12.2 10 10 N 10 17 29.83 1010 10 16 N/A

Powered by AerisWeather